Year,Month,Day,Hour,Minute,Value (Times are PST for temperature in C)
2016,08,18,00,00,19.70
2016,08,18,00,01,19.60
2016,08,18,00,02,19.60
2016,08,18,00,03,19.60
2016,08,18,00,04,19.60
2016,08,18,00,05,19.60
2016,08,18,00,06,19.60
2016,08,18,00,07,19.60
2016,08,18,00,08,19.60
2016,08,18,00,09,19.50
2016,08,18,00,10,19.50
2016,08,18,00,11,19.50
2016,08,18,00,12,19.50
2016,08,18,00,13,19.50
2016,08,18,00,14,19.40
2016,08,18,00,15,19.40
2016,08,18,00,16,19.40
2016,08,18,00,17,19.40
2016,08,18,00,18,19.40
2016,08,18,00,19,19.40
2016,08,18,00,20,19.40
2016,08,18,00,21,19.40
2016,08,18,00,22,19.30
2016,08,18,00,23,19.30
2016,08,18,00,24,19.30
2016,08,18,00,25,19.30
2016,08,18,00,26,19.30
2016,08,18,00,27,19.30
2016,08,18,00,28,19.30
2016,08,18,00,29,19.30
2016,08,18,00,30,19.20
2016,08,18,00,31,19.20
2016,08,18,00,32,19.20
2016,08,18,00,33,19.20
2016,08,18,00,34,19.20
2016,08,18,00,35,19.20
2016,08,18,00,36,19.20
2016,08,18,00,37,19.20
2016,08,18,00,38,19.20
2016,08,18,00,39,19.10
2016,08,18,00,40,19.10
2016,08,18,00,41,19.10
2016,08,18,00,42,19.10
2016,08,18,00,43,19.10
2016,08,18,00,44,19.00
2016,08,18,00,45,19.00
2016,08,18,00,46,19.00
2016,08,18,00,47,19.00
2016,08,18,00,48,19.00
2016,08,18,00,49,19.00
2016,08,18,00,50,19.00
2016,08,18,00,51,18.90
2016,08,18,00,52,18.90
2016,08,18,00,53,18.90
2016,08,18,00,54,18.90
2016,08,18,00,55,18.90
2016,08,18,00,56,18.90
2016,08,18,00,57,18.90
2016,08,18,00,58,18.90
2016,08,18,00,59,18.80
2016,08,18,01,00,18.80
2016,08,18,01,01,18.80
2016,08,18,01,02,18.80
2016,08,18,01,03,18.80
2016,08,18,01,04,18.80
2016,08,18,01,05,18.80
2016,08,18,01,06,18.80
2016,08,18,01,07,18.70
2016,08,18,01,08,18.70
2016,08,18,01,09,18.70
2016,08,18,01,10,18.70
2016,08,18,01,11,18.70
2016,08,18,01,12,18.70
2016,08,18,01,13,18.70
2016,08,18,01,14,18.70
2016,08,18,01,15,18.70
2016,08,18,01,16,18.70
2016,08,18,01,17,18.70
2016,08,18,01,18,18.70
2016,08,18,01,19,18.70
2016,08,18,01,20,18.70
2016,08,18,01,21,18.70
2016,08,18,01,22,18.70
2016,08,18,01,23,18.70
2016,08,18,01,24,18.70
2016,08,18,01,25,18.70
2016,08,18,01,26,18.60
2016,08,18,01,27,18.60
2016,08,18,01,28,18.60
2016,08,18,01,29,18.60
2016,08,18,01,30,18.60
2016,08,18,01,31,18.60
2016,08,18,01,32,18.50
2016,08,18,01,33,18.50
2016,08,18,01,34,18.50
2016,08,18,01,35,18.50
2016,08,18,01,36,18.50
2016,08,18,01,37,18.50
2016,08,18,01,38,18.50
2016,08,18,01,39,18.50
2016,08,18,01,40,18.40
2016,08,18,01,41,18.40
2016,08,18,01,42,18.40
2016,08,18,01,43,18.40
2016,08,18,01,44,18.40
2016,08,18,01,45,18.40
2016,08,18,01,46,18.40
2016,08,18,01,47,18.40
2016,08,18,01,48,18.40
2016,08,18,01,49,18.40
2016,08,18,01,50,18.40
2016,08,18,01,51,18.40
2016,08,18,01,52,18.40
2016,08,18,01,53,18.40
2016,08,18,01,54,18.40
2016,08,18,01,55,18.40
2016,08,18,01,56,18.40
2016,08,18,01,57,18.40
2016,08,18,01,58,18.30
2016,08,18,01,59,18.30
2016,08,18,02,00,18.30
2016,08,18,02,01,18.30
2016,08,18,02,02,18.30
2016,08,18,02,03,18.30
2016,08,18,02,04,18.20
2016,08,18,02,05,18.20
2016,08,18,02,06,18.20
2016,08,18,02,07,18.20
2016,08,18,02,08,18.20
2016,08,18,02,09,18.20
2016,08,18,02,10,18.20
2016,08,18,02,11,18.20
2016,08,18,02,12,18.20
2016,08,18,02,13,18.20
2016,08,18,02,14,18.10
2016,08,18,02,15,18.10
2016,08,18,02,16,18.10
2016,08,18,02,17,18.00
2016,08,18,02,18,18.00
2016,08,18,02,19,17.90
2016,08,18,02,20,17.90
2016,08,18,02,21,17.90
2016,08,18,02,22,17.80
2016,08,18,02,23,17.80
2016,08,18,02,24,17.80
2016,08,18,02,25,17.80
2016,08,18,02,26,17.80
2016,08,18,02,27,17.70
2016,08,18,02,28,17.70
2016,08,18,02,29,17.70
2016,08,18,02,30,17.70
2016,08,18,02,31,17.70
2016,08,18,02,32,17.70
2016,08,18,02,33,17.60
2016,08,18,02,34,17.60
2016,08,18,02,35,17.60
2016,08,18,02,36,17.60
2016,08,18,02,37,17.60
2016,08,18,02,38,17.50
2016,08,18,02,39,17.50
2016,08,18,02,40,17.40
2016,08,18,02,41,17.40
2016,08,18,02,42,17.40
2016,08,18,02,43,17.40
2016,08,18,02,44,17.40
2016,08,18,02,45,17.40
2016,08,18,02,46,17.30
2016,08,18,02,47,17.30
2016,08,18,02,48,17.30
2016,08,18,02,49,17.30
2016,08,18,02,50,17.30
2016,08,18,02,51,17.30
2016,08,18,02,52,17.20
2016,08,18,02,53,17.20
2016,08,18,02,54,17.30
2016,08,18,02,55,17.20
2016,08,18,02,56,17.20
2016,08,18,02,57,17.20
2016,08,18,02,58,17.20
2016,08,18,02,59,17.20
2016,08,18,03,00,17.30
2016,08,18,03,01,17.30
2016,08,18,03,02,17.30
2016,08,18,03,03,17.30
2016,08,18,03,04,17.30
2016,08,18,03,05,17.30
2016,08,18,03,06,17.40
2016,08,18,03,07,17.40
2016,08,18,03,08,17.40
2016,08,18,03,09,17.40
2016,08,18,03,10,17.40
2016,08,18,03,11,17.40
2016,08,18,03,12,17.40
2016,08,18,03,13,17.40
2016,08,18,03,14,17.40
2016,08,18,03,15,17.40
2016,08,18,03,16,17.40
2016,08,18,03,17,17.40
2016,08,18,03,18,17.50
2016,08,18,03,19,17.50
2016,08,18,03,20,17.50
2016,08,18,03,21,17.60
2016,08,18,03,22,17.60
2016,08,18,03,23,17.60
2016,08,18,03,24,17.60
2016,08,18,03,25,17.60
2016,08,18,03,26,17.60
2016,08,18,03,27,17.60
2016,08,18,03,28,17.60
2016,08,18,03,29,17.50
2016,08,18,03,30,17.50
2016,08,18,03,31,17.50
2016,08,18,03,32,17.50
2016,08,18,03,33,17.50
2016,08,18,03,34,17.40
2016,08,18,03,35,17.40
2016,08,18,03,36,17.40
2016,08,18,03,37,17.40
2016,08,18,03,38,17.50
2016,08,18,03,39,17.50
2016,08,18,03,40,17.50
2016,08,18,03,41,17.60
2016,08,18,03,42,17.60
2016,08,18,03,43,17.60
2016,08,18,03,44,17.60
2016,08,18,03,45,17.70
2016,08,18,03,46,17.70
2016,08,18,03,47,17.70
2016,08,18,03,48,17.70
2016,08,18,03,49,17.70
2016,08,18,03,50,17.80
2016,08,18,03,51,17.80
2016,08,18,03,52,17.80
2016,08,18,03,53,17.80
2016,08,18,03,54,17.80
2016,08,18,03,55,17.80
2016,08,18,03,56,17.80
2016,08,18,03,57,17.80
2016,08,18,03,58,17.80
2016,08,18,03,59,17.80
2016,08,18,04,00,17.80
2016,08,18,04,01,17.80
2016,08,18,04,02,17.80
2016,08,18,04,03,17.80
2016,08,18,04,04,17.70
2016,08,18,04,05,17.70
2016,08,18,04,06,17.70
2016,08,18,04,07,17.70
2016,08,18,04,08,17.70
2016,08,18,04,09,17.70
2016,08,18,04,10,17.60
2016,08,18,04,11,17.60
2016,08,18,04,12,17.60
2016,08,18,04,13,17.60
2016,08,18,04,14,17.50
2016,08,18,04,15,17.50
2016,08,18,04,16,17.40
2016,08,18,04,17,17.40
2016,08,18,04,18,17.40
2016,08,18,04,19,17.40
2016,08,18,04,20,17.30
2016,08,18,04,21,17.30
2016,08,18,04,22,17.30
2016,08,18,04,23,17.30
2016,08,18,04,24,17.30
2016,08,18,04,25,17.30
2016,08,18,04,26,17.30
2016,08,18,04,27,17.30
2016,08,18,04,28,17.30
2016,08,18,04,29,17.30
2016,08,18,04,30,17.30
2016,08,18,04,31,17.30
2016,08,18,04,32,17.30
2016,08,18,04,33,17.30
2016,08,18,04,34,17.30
2016,08,18,04,35,17.30
2016,08,18,04,36,17.30
2016,08,18,04,37,17.20
2016,08,18,04,38,17.20
2016,08,18,04,39,17.20
2016,08,18,04,40,17.20
2016,08,18,04,41,17.20
2016,08,18,04,42,17.20
2016,08,18,04,43,17.10
2016,08,18,04,44,17.10
2016,08,18,04,45,17.10
2016,08,18,04,46,17.10
2016,08,18,04,47,17.00
2016,08,18,04,48,17.00
2016,08,18,04,49,16.90
2016,08,18,04,50,16.90
2016,08,18,04,51,16.90
2016,08,18,04,52,16.90
2016,08,18,04,53,16.90
2016,08,18,04,54,16.90
2016,08,18,04,55,16.90
2016,08,18,04,56,16.90
2016,08,18,04,57,16.90
2016,08,18,04,58,16.90
2016,08,18,04,59,16.90
2016,08,18,05,00,16.90
2016,08,18,05,01,16.90
2016,08,18,05,02,16.90
2016,08,18,05,03,16.90
2016,08,18,05,04,16.90
2016,08,18,05,05,16.80
2016,08,18,05,06,16.80
2016,08,18,05,07,16.80
2016,08,18,05,08,16.80
2016,08,18,05,09,16.80
2016,08,18,05,10,16.80
2016,08,18,05,11,16.80
2016,08,18,05,12,16.80
2016,08,18,05,13,16.80
2016,08,18,05,14,16.80
2016,08,18,05,15,16.90
2016,08,18,05,16,16.90
2016,08,18,05,17,16.90
2016,08,18,05,18,16.90
2016,08,18,05,19,17.00
2016,08,18,05,20,16.90
2016,08,18,05,21,17.00
2016,08,18,05,22,17.00
2016,08,18,05,23,17.00
2016,08,18,05,24,17.00
2016,08,18,05,25,17.00
2016,08,18,05,26,17.00
2016,08,18,05,27,16.90
2016,08,18,05,28,16.90
2016,08,18,05,29,16.90
2016,08,18,05,30,16.90
2016,08,18,05,31,16.90
2016,08,18,05,32,17.00
2016,08,18,05,33,17.00
2016,08,18,05,34,17.00
2016,08,18,05,35,17.00
2016,08,18,05,36,17.00
2016,08,18,05,37,17.00
2016,08,18,05,38,17.00
2016,08,18,05,39,17.00
2016,08,18,05,40,17.00
2016,08,18,05,41,17.00
2016,08,18,05,42,17.00
2016,08,18,05,43,17.00
2016,08,18,05,44,17.00
2016,08,18,05,45,17.00
2016,08,18,05,46,17.00
2016,08,18,05,47,17.00
2016,08,18,05,48,17.00
2016,08,18,05,49,16.90
2016,08,18,05,50,16.90
2016,08,18,05,51,16.90
2016,08,18,05,52,16.90
2016,08,18,05,53,16.90
2016,08,18,05,54,16.90
2016,08,18,05,55,16.90
2016,08,18,05,56,16.90
2016,08,18,05,57,16.80
2016,08,18,05,58,16.80
2016,08,18,05,59,16.70
2016,08,18,06,00,16.70
2016,08,18,06,01,16.60
2016,08,18,06,02,16.50
2016,08,18,06,03,16.40
2016,08,18,06,04,16.40
2016,08,18,06,05,16.30
2016,08,18,06,06,16.30
2016,08,18,06,07,16.20
2016,08,18,06,08,16.20
2016,08,18,06,09,16.10
2016,08,18,06,10,16.10
2016,08,18,06,11,16.00
2016,08,18,06,12,16.00
2016,08,18,06,13,15.90
2016,08,18,06,14,15.90
2016,08,18,06,15,15.90
2016,08,18,06,16,15.80
2016,08,18,06,17,15.80
2016,08,18,06,18,15.80
2016,08,18,06,19,15.80
2016,08,18,06,20,15.70
2016,08,18,06,21,15.70
2016,08,18,06,22,15.70
2016,08,18,06,23,15.70
2016,08,18,06,24,15.70
2016,08,18,06,25,15.70
2016,08,18,06,26,15.70
2016,08,18,06,27,15.70
2016,08,18,06,28,15.70
2016,08,18,06,29,15.70
2016,08,18,06,30,15.70
2016,08,18,06,31,15.70
2016,08,18,06,32,15.70
2016,08,18,06,33,15.70
2016,08,18,06,34,15.70
2016,08,18,06,35,15.70
2016,08,18,06,36,15.70
2016,08,18,06,37,15.70
2016,08,18,06,38,15.70
2016,08,18,06,39,15.70
2016,08,18,06,40,15.70
2016,08,18,06,41,15.70
2016,08,18,06,42,15.70
2016,08,18,06,43,15.70
2016,08,18,06,44,15.70
2016,08,18,06,45,15.70
2016,08,18,06,46,15.70
2016,08,18,06,47,15.70
2016,08,18,06,48,15.70
2016,08,18,06,49,15.70
2016,08,18,06,50,15.70
2016,08,18,06,51,15.70
2016,08,18,06,52,15.70
2016,08,18,06,53,15.70
2016,08,18,06,54,15.70
2016,08,18,06,55,15.70
2016,08,18,06,56,15.70
2016,08,18,06,57,15.80
2016,08,18,06,58,15.80
2016,08,18,06,59,15.80
2016,08,18,07,00,15.80
2016,08,18,07,01,15.80
2016,08,18,07,02,15.80
2016,08,18,07,03,15.80
2016,08,18,07,04,15.80
2016,08,18,07,05,15.80
2016,08,18,07,06,15.80
2016,08,18,07,07,15.80
2016,08,18,07,08,15.80
2016,08,18,07,09,15.80
2016,08,18,07,10,15.80
2016,08,18,07,11,15.80
2016,08,18,07,12,15.80
2016,08,18,07,13,15.80
2016,08,18,07,14,15.80
2016,08,18,07,15,15.80
2016,08,18,07,16,15.80
2016,08,18,07,17,15.80
2016,08,18,07,18,15.80
2016,08,18,07,19,15.80
2016,08,18,07,20,15.80
2016,08,18,07,21,15.90
2016,08,18,07,22,15.90
2016,08,18,07,23,15.90
2016,08,18,07,24,15.90
2016,08,18,07,25,15.90
2016,08,18,07,26,15.90
2016,08,18,07,27,15.90
2016,08,18,07,28,15.90
2016,08,18,07,29,15.90
2016,08,18,07,30,15.90
2016,08,18,07,31,15.90
2016,08,18,07,32,16.00
2016,08,18,07,33,16.00
2016,08,18,07,34,16.10
2016,08,18,07,35,16.10
2016,08,18,07,36,16.10
2016,08,18,07,37,16.20
2016,08,18,07,38,16.20
2016,08,18,07,39,16.30
2016,08,18,07,40,16.30
2016,08,18,07,41,16.40
2016,08,18,07,42,16.50
2016,08,18,07,43,16.50
2016,08,18,07,44,16.60
2016,08,18,07,45,16.70
2016,08,18,07,46,16.80
2016,08,18,07,47,16.80
2016,08,18,07,48,16.90
2016,08,18,07,49,17.00
2016,08,18,07,50,17.10
2016,08,18,07,51,17.20
2016,08,18,07,52,17.20
2016,08,18,07,53,17.30
2016,08,18,07,54,17.40
2016,08,18,07,55,17.40
2016,08,18,07,56,17.50
2016,08,18,07,57,17.60
2016,08,18,07,58,17.60
2016,08,18,07,59,17.60
2016,08,18,08,00,17.70
2016,08,18,08,01,17.70
2016,08,18,08,02,17.70
2016,08,18,08,03,17.80
2016,08,18,08,04,17.80
2016,08,18,08,05,17.80
2016,08,18,08,06,17.90
2016,08,18,08,07,17.90
2016,08,18,08,08,17.90
2016,08,18,08,09,18.00
2016,08,18,08,10,18.00
2016,08,18,08,11,18.10
2016,08,18,08,12,18.10
2016,08,18,08,13,18.20
2016,08,18,08,14,18.20
2016,08,18,08,15,18.20
2016,08,18,08,16,18.20
2016,08,18,08,17,18.30
2016,08,18,08,18,18.30
2016,08,18,08,19,18.30
2016,08,18,08,20,18.40
2016,08,18,08,21,18.50
2016,08,18,08,22,18.60
2016,08,18,08,23,18.60
2016,08,18,08,24,18.70
2016,08,18,08,25,18.70
2016,08,18,08,26,18.80
2016,08,18,08,27,18.80
2016,08,18,08,28,18.90
2016,08,18,08,29,19.00
2016,08,18,08,30,19.00
2016,08,18,08,31,19.10
2016,08,18,08,32,19.20
2016,08,18,08,33,19.30
2016,08,18,08,34,19.30
2016,08,18,08,35,19.40
2016,08,18,08,36,19.40
2016,08,18,08,37,19.40
2016,08,18,08,38,19.40
2016,08,18,08,39,19.40
2016,08,18,08,40,19.40
2016,08,18,08,41,19.40
2016,08,18,08,42,19.50
2016,08,18,08,43,19.50
2016,08,18,08,44,19.50
2016,08,18,08,45,19.50
2016,08,18,08,46,19.60
2016,08,18,08,47,19.60
2016,08,18,08,48,19.70
2016,08,18,08,49,19.70
2016,08,18,08,50,19.80
2016,08,18,08,51,19.80
2016,08,18,08,52,19.90
2016,08,18,08,53,19.90
2016,08,18,08,54,20.00
2016,08,18,08,55,20.00
2016,08,18,08,56,20.00
2016,08,18,08,57,20.10
2016,08,18,08,58,20.10
2016,08,18,08,59,20.10
2016,08,18,09,00,20.10
2016,08,18,09,01,20.10
2016,08,18,09,02,20.00
2016,08,18,09,03,20.00
2016,08,18,09,04,20.00
2016,08,18,09,05,20.00
2016,08,18,09,06,20.00
2016,08,18,09,07,20.10
2016,08,18,09,08,20.10
2016,08,18,09,09,20.20
2016,08,18,09,10,20.30
2016,08,18,09,11,20.30
2016,08,18,09,12,20.40
2016,08,18,09,13,20.50
2016,08,18,09,14,20.60
2016,08,18,09,15,20.70
2016,08,18,09,16,20.70
2016,08,18,09,17,20.80
2016,08,18,09,18,20.90
2016,08,18,09,19,21.00
2016,08,18,09,20,21.10
2016,08,18,09,21,21.20
2016,08,18,09,22,21.20
2016,08,18,09,23,21.30
2016,08,18,09,24,21.30
2016,08,18,09,25,21.40
2016,08,18,09,26,21.40
2016,08,18,09,27,21.40
2016,08,18,09,28,21.30
2016,08,18,09,29,21.30
2016,08,18,09,30,21.30
2016,08,18,09,31,21.30
2016,08,18,09,32,21.30
2016,08,18,09,33,21.20
2016,08,18,09,34,21.30
2016,08,18,09,35,21.30
2016,08,18,09,36,21.30
2016,08,18,09,37,21.30
2016,08,18,09,38,21.40
2016,08,18,09,39,21.50
2016,08,18,09,40,21.60
2016,08,18,09,41,21.60
2016,08,18,09,42,21.70
2016,08,18,09,43,21.70
2016,08,18,09,44,21.80
2016,08,18,09,45,21.80
2016,08,18,09,46,21.80
2016,08,18,09,47,21.90
2016,08,18,09,48,21.90
2016,08,18,09,49,22.00
2016,08,18,09,50,22.10
2016,08,18,09,51,22.10
2016,08,18,09,52,22.10
2016,08,18,09,53,22.10
2016,08,18,09,54,22.20
2016,08,18,09,55,22.20
2016,08,18,09,56,22.30
2016,08,18,09,57,22.30
2016,08,18,09,58,22.30
2016,08,18,09,59,22.30
2016,08,18,10,00,22.30
2016,08,18,10,01,22.30
2016,08,18,10,02,22.30
2016,08,18,10,03,22.40
2016,08,18,10,04,22.60
2016,08,18,10,05,22.70
2016,08,18,10,06,22.80
2016,08,18,10,07,22.80
2016,08,18,10,08,22.90
2016,08,18,10,09,22.90
2016,08,18,10,10,23.00
2016,08,18,10,11,23.00
2016,08,18,10,12,23.00
2016,08,18,10,13,23.10
2016,08,18,10,14,23.10
2016,08,18,10,15,23.20
2016,08,18,10,16,23.20
2016,08,18,10,17,23.20
2016,08,18,10,18,23.20
2016,08,18,10,19,23.30
2016,08,18,10,20,23.40
2016,08,18,10,21,23.50
2016,08,18,10,22,23.70
2016,08,18,10,23,23.80
2016,08,18,10,24,23.90
2016,08,18,10,25,24.00
2016,08,18,10,26,24.00
2016,08,18,10,27,24.00
2016,08,18,10,28,24.00
2016,08,18,10,29,24.10
2016,08,18,10,30,24.00
2016,08,18,10,31,24.00
2016,08,18,10,32,24.00
2016,08,18,10,33,24.10
2016,08,18,10,34,24.20
2016,08,18,10,35,24.20
2016,08,18,10,36,24.20
2016,08,18,10,37,24.20
2016,08,18,10,38,24.20
2016,08,18,10,39,24.20
2016,08,18,10,40,24.20
2016,08,18,10,41,24.10
2016,08,18,10,42,24.10
2016,08,18,10,43,24.10
2016,08,18,10,44,24.20
2016,08,18,10,45,24.30
2016,08,18,10,46,24.30
2016,08,18,10,47,24.30
2016,08,18,10,48,24.40
2016,08,18,10,49,24.60
2016,08,18,10,50,24.60
2016,08,18,10,51,24.70
2016,08,18,10,52,24.70
2016,08,18,10,53,24.80
2016,08,18,10,54,24.80
2016,08,18,10,55,24.90
2016,08,18,10,56,25.00
2016,08,18,10,57,25.10
2016,08,18,10,58,25.20
2016,08,18,10,59,25.30
2016,08,18,11,00,25.50
2016,08,18,11,01,25.50
2016,08,18,11,02,25.60
2016,08,18,11,03,25.70
2016,08,18,11,04,25.80
2016,08,18,11,05,25.90
2016,08,18,11,06,26.00
2016,08,18,11,07,26.10
2016,08,18,11,08,26.10
2016,08,18,11,09,26.10
2016,08,18,11,10,26.10
2016,08,18,11,11,26.10
2016,08,18,11,12,26.10
2016,08,18,11,13,26.10
2016,08,18,11,14,26.20
2016,08,18,11,15,26.20
2016,08,18,11,16,26.20
2016,08,18,11,17,26.20
2016,08,18,11,18,26.20
2016,08,18,11,19,26.20
2016,08,18,11,20,26.20
2016,08,18,11,21,26.30
2016,08,18,11,22,26.30
2016,08,18,11,23,26.40
2016,08,18,11,24,26.50
2016,08,18,11,25,26.50
2016,08,18,11,26,26.60
2016,08,18,11,27,26.70
2016,08,18,11,28,26.70
2016,08,18,11,29,26.80
2016,08,18,11,30,26.80
2016,08,18,11,31,26.90
2016,08,18,11,32,26.90
2016,08,18,11,33,27.00
2016,08,18,11,34,27.10
2016,08,18,11,35,27.20
2016,08,18,11,36,27.30
2016,08,18,11,37,27.40
2016,08,18,11,38,27.50
2016,08,18,11,39,27.50
2016,08,18,11,40,27.60
2016,08,18,11,41,27.60
2016,08,18,11,42,27.60
2016,08,18,11,43,27.60
2016,08,18,11,44,27.70
2016,08,18,11,45,27.70
2016,08,18,11,46,27.80
2016,08,18,11,47,27.90
2016,08,18,11,48,28.00
2016,08,18,11,49,28.00
2016,08,18,11,50,28.10
2016,08,18,11,51,28.10
2016,08,18,11,52,28.10
2016,08,18,11,53,28.10
2016,08,18,11,54,28.10
2016,08,18,11,55,28.10
2016,08,18,11,56,28.10
2016,08,18,11,57,28.20
2016,08,18,11,58,28.20
2016,08,18,11,59,28.30
2016,08,18,12,00,28.30
2016,08,18,12,01,28.30
2016,08,18,12,02,28.30
2016,08,18,12,03,28.30
2016,08,18,12,04,28.40
2016,08,18,12,05,28.40
2016,08,18,12,06,28.40
2016,08,18,12,07,28.50
2016,08,18,12,08,28.50
2016,08,18,12,09,28.50
2016,08,18,12,10,28.60
2016,08,18,12,11,28.60
2016,08,18,12,12,28.60
2016,08,18,12,13,28.70
2016,08,18,12,14,28.80
2016,08,18,12,15,28.90
2016,08,18,12,16,28.90
2016,08,18,12,17,28.90
2016,08,18,12,18,29.30
2016,08,18,12,19,29.30
2016,08,18,12,20,29.40
2016,08,18,12,21,29.40
2016,08,18,12,22,29.40
2016,08,18,12,23,29.40
2016,08,18,12,24,29.50
2016,08,18,12,25,29.50
2016,08,18,12,26,29.50
2016,08,18,12,27,29.50
2016,08,18,12,28,29.50
2016,08,18,12,29,29.60
2016,08,18,12,30,29.60
2016,08,18,12,31,29.60
2016,08,18,12,32,29.60
2016,08,18,12,33,29.70
2016,08,18,12,34,29.80
2016,08,18,12,35,29.90
2016,08,18,12,36,30.00
2016,08,18,12,37,30.10
2016,08,18,12,38,30.20
2016,08,18,12,39,30.20
2016,08,18,12,40,30.20
2016,08,18,12,41,30.20
2016,08,18,12,42,30.20
2016,08,18,12,43,30.30
2016,08,18,12,44,30.30
2016,08,18,12,45,30.30
2016,08,18,12,46,30.30
2016,08,18,12,47,30.30
2016,08,18,12,48,30.20
2016,08,18,12,49,30.20
2016,08,18,12,50,30.20
2016,08,18,12,51,30.30
2016,08,18,12,52,30.30
2016,08,18,12,53,30.40
2016,08,18,12,54,30.50
2016,08,18,12,55,30.60
2016,08,18,12,56,30.60
2016,08,18,12,57,30.60
2016,08,18,12,58,30.60
2016,08,18,12,59,30.60
2016,08,18,13,00,30.70
2016,08,18,13,01,30.80
2016,08,18,13,02,31.00
2016,08,18,13,03,31.00
2016,08,18,13,04,31.00
2016,08,18,13,05,31.00
2016,08,18,13,06,31.00
2016,08,18,13,07,31.10
2016,08,18,13,08,31.10
2016,08,18,13,09,31.10
2016,08,18,13,10,31.10
2016,08,18,13,11,31.10
2016,08,18,13,12,31.10
2016,08,18,13,13,31.00
2016,08,18,13,14,31.00
2016,08,18,13,15,30.90
2016,08,18,13,16,30.90
2016,08,18,13,17,30.90
2016,08,18,13,18,30.90
2016,08,18,13,19,30.90
2016,08,18,13,20,31.00
2016,08,18,13,21,31.00
2016,08,18,13,22,31.00
2016,08,18,13,23,30.90
2016,08,18,13,24,30.90
2016,08,18,13,25,30.90
2016,08,18,13,26,31.00
2016,08,18,13,27,31.00
2016,08,18,13,28,31.00
2016,08,18,13,29,31.00
2016,08,18,13,30,31.10
2016,08,18,13,31,31.10
2016,08,18,13,32,31.10
2016,08,18,13,33,31.20
2016,08,18,13,34,31.30
2016,08,18,13,35,31.40
2016,08,18,13,36,31.40
2016,08,18,13,37,31.40
2016,08,18,13,38,31.50
2016,08,18,13,39,31.50
2016,08,18,13,40,31.50
2016,08,18,13,41,31.60
2016,08,18,13,42,31.70
2016,08,18,13,43,31.70
2016,08,18,13,44,31.80
2016,08,18,13,45,31.80
2016,08,18,13,46,31.80
2016,08,18,13,47,31.80
2016,08,18,13,48,31.80
2016,08,18,13,49,31.90
2016,08,18,13,50,32.00
2016,08,18,13,51,32.00
2016,08,18,13,52,32.00
2016,08,18,13,53,32.00
2016,08,18,13,54,32.00
2016,08,18,13,55,32.00
2016,08,18,13,56,32.00
2016,08,18,13,57,32.10
2016,08,18,13,58,32.10
2016,08,18,13,59,32.20
2016,08,18,14,00,32.30
2016,08,18,14,01,32.30
2016,08,18,14,02,32.30
2016,08,18,14,03,32.40
2016,08,18,14,04,32.50
2016,08,18,14,05,32.60
2016,08,18,14,06,32.70
2016,08,18,14,07,32.70
2016,08,18,14,08,32.80
2016,08,18,14,09,32.80
2016,08,18,14,10,32.90
2016,08,18,14,11,33.00
2016,08,18,14,12,32.90
2016,08,18,14,13,32.90
2016,08,18,14,14,32.80
2016,08,18,14,15,32.70
2016,08,18,14,16,32.70
2016,08,18,14,17,32.60
2016,08,18,14,18,32.60
2016,08,18,14,19,32.70
2016,08,18,14,20,32.80
2016,08,18,14,21,32.80
2016,08,18,14,22,32.80
2016,08,18,14,23,32.80
2016,08,18,14,24,32.70
2016,08,18,14,25,32.70
2016,08,18,14,26,32.70
2016,08,18,14,27,32.80
2016,08,18,14,28,32.80
2016,08,18,14,29,32.90
2016,08,18,14,30,33.00
2016,08,18,14,31,33.10
2016,08,18,14,32,33.10
2016,08,18,14,33,33.20
2016,08,18,14,34,33.20
2016,08,18,14,35,33.20
2016,08,18,14,36,33.20
2016,08,18,14,37,33.20
2016,08,18,14,38,33.20
2016,08,18,14,39,33.20
2016,08,18,14,40,33.20
2016,08,18,14,41,33.10
2016,08,18,14,42,33.10
2016,08,18,14,43,33.10
2016,08,18,14,44,33.10
2016,08,18,14,45,33.30
2016,08,18,14,46,33.40
2016,08,18,14,47,33.50
2016,08,18,14,48,33.60
2016,08,18,14,49,33.70
2016,08,18,14,50,33.70
2016,08,18,14,51,33.60
2016,08,18,14,52,33.60
2016,08,18,14,53,33.60
2016,08,18,14,54,33.60
2016,08,18,14,55,33.60
2016,08,18,14,56,33.70
2016,08,18,14,57,33.60
2016,08,18,14,58,33.60
2016,08,18,14,59,33.50
2016,08,18,15,00,33.50
2016,08,18,15,01,33.50
2016,08,18,15,02,33.60
2016,08,18,15,03,33.60
2016,08,18,15,04,33.60
2016,08,18,15,05,33.70
2016,08,18,15,06,33.70
2016,08,18,15,07,33.80
2016,08,18,15,08,33.80
2016,08,18,15,09,33.80
2016,08,18,15,10,33.70
2016,08,18,15,11,33.70
2016,08,18,15,12,33.70
2016,08,18,15,13,33.70
2016,08,18,15,14,33.70
2016,08,18,15,15,33.70
2016,08,18,15,16,33.70
2016,08,18,15,17,33.80
2016,08,18,15,18,33.70
2016,08,18,15,19,33.70
2016,08,18,15,20,33.80
2016,08,18,15,21,33.80
2016,08,18,15,22,33.90
2016,08,18,15,23,33.90
2016,08,18,15,24,33.80
2016,08,18,15,25,33.80
2016,08,18,15,26,33.80
2016,08,18,15,27,33.80
2016,08,18,15,28,33.80
2016,08,18,15,29,33.80
2016,08,18,15,30,33.80
2016,08,18,15,31,33.90
2016,08,18,15,32,33.90
2016,08,18,15,33,33.90
2016,08,18,15,34,34.00
2016,08,18,15,35,34.10
2016,08,18,15,36,34.20
2016,08,18,15,37,34.20
2016,08,18,15,38,34.10
2016,08,18,15,39,34.10
2016,08,18,15,40,34.10
2016,08,18,15,41,34.20
2016,08,18,15,42,34.20
2016,08,18,15,43,34.20
2016,08,18,15,44,34.20
2016,08,18,15,45,34.20
2016,08,18,15,46,34.30
2016,08,18,15,47,34.30
2016,08,18,15,48,34.30
2016,08,18,15,49,34.40
2016,08,18,15,50,34.40
2016,08,18,15,51,34.50
2016,08,18,15,52,34.60
2016,08,18,15,53,34.70
2016,08,18,15,54,34.70
2016,08,18,15,55,34.70
2016,08,18,15,56,34.80
2016,08,18,15,57,34.80
2016,08,18,15,58,34.80
2016,08,18,15,59,34.70
2016,08,18,16,00,34.60
2016,08,18,16,01,34.50
2016,08,18,16,02,34.40
2016,08,18,16,03,34.40
2016,08,18,16,04,34.30
2016,08,18,16,05,34.20
2016,08,18,16,06,34.10
2016,08,18,16,07,34.10
2016,08,18,16,08,34.10
2016,08,18,16,09,34.10
2016,08,18,16,10,34.00
2016,08,18,16,11,34.00
2016,08,18,16,12,34.00
2016,08,18,16,13,34.00
2016,08,18,16,14,34.00
2016,08,18,16,15,34.00
2016,08,18,16,16,34.00
2016,08,18,16,17,34.00
2016,08,18,16,18,34.10
2016,08,18,16,19,34.20
2016,08,18,16,20,34.20
2016,08,18,16,21,34.20
2016,08,18,16,22,34.20
2016,08,18,16,23,34.30
2016,08,18,16,24,34.30
2016,08,18,16,25,34.20
2016,08,18,16,26,34.20
2016,08,18,16,27,34.10
2016,08,18,16,28,34.10
2016,08,18,16,29,34.10
2016,08,18,16,30,34.10
2016,08,18,16,31,34.10
2016,08,18,16,32,34.10
2016,08,18,16,33,34.10
2016,08,18,16,34,34.10
2016,08,18,16,35,34.00
2016,08,18,16,36,34.00
2016,08,18,16,37,34.10
2016,08,18,16,38,34.10
2016,08,18,16,39,34.10
2016,08,18,16,40,34.10
2016,08,18,16,41,34.20
2016,08,18,16,42,34.20
2016,08,18,16,43,34.20
2016,08,18,16,44,34.10
2016,08,18,16,45,34.10
2016,08,18,16,46,34.00
2016,08,18,16,47,34.00
2016,08,18,16,48,34.00
2016,08,18,16,49,33.90
2016,08,18,16,50,33.90
2016,08,18,16,51,33.90
2016,08,18,16,52,33.90
2016,08,18,16,53,33.90
2016,08,18,16,54,33.80
2016,08,18,16,55,33.80
2016,08,18,16,56,33.90
2016,08,18,16,57,33.80
2016,08,18,16,58,33.80
2016,08,18,16,59,33.80
2016,08,18,17,00,33.80
2016,08,18,17,01,33.80
2016,08,18,17,02,33.80
2016,08,18,17,03,33.70
2016,08,18,17,04,33.70
2016,08,18,17,05,33.70
2016,08,18,17,06,33.80
2016,08,18,17,07,33.80
2016,08,18,17,08,33.80
2016,08,18,17,09,33.90
2016,08,18,17,10,34.00
2016,08,18,17,11,34.00
2016,08,18,17,12,34.00
2016,08,18,17,13,34.00
2016,08,18,17,14,34.00
2016,08,18,17,15,33.90
2016,08,18,17,16,33.80
2016,08,18,17,17,33.80
2016,08,18,17,18,33.80
2016,08,18,17,19,33.80